Time,TemperatureF,DewpointF,PressureIn,WindDirection,WindDirectionDegrees,WindSpeedMPH,WindSpeedGustMPH,Humidity,HourlyPrecipIn,Conditions,Clouds,dailyrainin,SoftwareType,DateUTC
2013-09-29 00:02:00,65.8,58.8,29.91,South,169,0.0,5.0,78,0.00,,---,0.00,VWS V14.01,2013-09-29 05:02:00,
2013-09-29 00:07:00,65.8,58.8,29.91,South,173,0.0,2.0,78,0.00,,---,0.00,VWS V14.01,2013-09-29 05:07:00,
2013-09-29 00:12:00,65.8,58.8,29.91,South,174,1.0,3.0,78,0.00,,---,0.00,VWS V14.01,2013-09-29 05:12:00,
2013-09-29 00:17:00,65.9,58.9,29.91,SSE,162,0.0,4.0,78,0.00,,---,0.00,VWS V14.01,2013-09-29 05:17:00,
2013-09-29 00:22:00,65.9,58.9,29.91,South,171,1.0,5.0,78,0.00,,---,0.00,VWS V14.01,2013-09-29 05:22:00,
2013-09-29 00:27:00,65.9,58.9,29.91,South,177,0.0,5.0,78,0.00,,---,0.00,VWS V14.01,2013-09-29 05:27:00,
2013-09-29 00:32:00,65.9,59.2,29.91,South,177,0.0,5.0,79,0.00,,---,0.00,VWS V14.01,2013-09-29 05:32:00,
2013-09-29 00:37:00,65.9,59.2,29.91,South,175,0.0,3.0,79,0.00,,---,0.00,VWS V14.01,2013-09-29 05:37:00,
2013-09-29 00:42:00,65.9,59.2,29.91,South,178,3.0,4.0,79,0.00,,---,0.00,VWS V14.01,2013-09-29 05:42:00,
2013-09-29 00:47:00,65.9,59.2,29.90,SSE,162,0.0,5.0,79,0.00,,---,0.00,VWS V14.01,2013-09-29 05:47:00,
2013-09-29 00:52:00,65.9,59.2,29.90,SSE,159,0.0,5.0,79,0.00,,---,0.00,VWS V14.01,2013-09-29 05:52:00,
2013-09-29 00:57:00,65.9,59.2,29.90,SSE,159,0.0,5.0,79,0.00,,---,0.00,VWS V14.01,2013-09-29 05:57:00,
2013-09-29 01:02:00,65.8,59.1,29.90,SSE,158,0.0,5.0,79,0.00,,---,0.00,VWS V14.01,2013-09-29 06:02:00,
2013-09-29 01:07:00,65.8,59.1,29.90,SSE,166,0.0,4.0,79,0.00,,---,0.00,VWS V14.01,2013-09-29 06:07:00,
2013-09-29 01:12:00,65.8,59.1,29.90,South,174,1.0,4.0,79,0.00,,---,0.00,VWS V14.01,2013-09-29 06:12:00,
2013-09-29 01:17:00,65.9,59.2,29.90,South,169,0.0,4.0,79,0.00,,---,0.00,VWS V14.01,2013-09-29 06:17:00,
2013-09-29 01:22:00,65.9,59.2,29.90,SSE,165,0.0,4.0,79,0.00,,---,0.00,VWS V14.01,2013-09-29 06:22:00,
2013-09-29 01:27:00,65.9,59.2,29.90,SSE,150,0.0,4.0,79,0.00,,---,0.00,VWS V14.01,2013-09-29 06:27:00,
2013-09-29 01:32:00,65.8,59.5,29.90,SSE,161,0.0,4.0,80,0.00,,---,0.00,VWS V14.01,2013-09-29 06:32:00,
2013-09-29 01:37:00,65.8,59.5,29.90,SSE,162,0.0,2.0,80,0.00,,---,0.00,VWS V14.01,2013-09-29 06:37:00,
2013-09-29 01:42:00,65.8,59.5,29.90,SSE,153,0.0,2.0,80,0.00,,---,0.00,VWS V14.01,2013-09-29 06:42:00,
2013-09-29 01:47:00,65.8,59.5,29.90,SSE,153,0.0,2.0,80,0.00,,---,0.00,VWS V14.01,2013-09-29 06:47:00,
2013-09-29 01:52:00,65.7,59.4,29.90,SSE,157,0.0,3.0,80,0.00,,---,0.00,VWS V14.01,2013-09-29 06:52:00,
2013-09-29 01:57:00,65.5,59.2,29.90,SSE,159,0.0,3.0,80,0.00,,---,0.00,VWS V14.01,2013-09-29 06:57:00,
2013-09-29 02:02:00,65.5,59.5,29.90,SSE,159,0.0,3.0,81,0.00,,---,0.00,VWS V14.01,2013-09-29 07:02:00,
2013-09-29 02:07:00,65.5,59.5,29.90,SSE,148,0.0,3.0,81,0.00,,---,0.00,VWS V14.01,2013-09-29 07:07:00,
2013-09-29 02:12:00,65.5,59.5,29.90,SSE,159,0.0,3.0,81,0.00,,---,0.00,VWS V14.01,2013-09-29 07:12:00,
2013-09-29 02:17:00,65.4,59.4,29.90,SSE,158,0.0,3.0,81,0.00,,---,0.00,VWS V14.01,2013-09-29 07:17:00,
2013-09-29 02:22:00,65.4,59.4,29.90,South,172,0.0,4.0,81,0.00,,---,0.00,VWS V14.01,2013-09-29 07:22:00,
2013-09-29 02:27:00,65.4,59.4,29.90,South,173,0.0,5.0,81,0.00,,---,0.00,VWS V14.01,2013-09-29 07:27:00,
2013-09-29 02:32:00,65.4,59.4,29.89,SSE,157,1.0,5.0,81,0.00,,---,0.00,VWS V14.01,2013-09-29 07:32:00,
2013-09-29 02:37:00,65.4,59.4,29.89,SSE,161,0.0,2.0,81,0.00,,---,0.00,VWS V14.01,2013-09-29 07:37:00,
2013-09-29 02:42:00,65.3,59.3,29.89,SSE,161,0.0,2.0,81,0.00,,---,0.00,VWS V14.01,2013-09-29 07:42:00,
2013-09-29 02:47:00,65.3,59.3,29.89,SE,134,1.0,2.0,81,0.00,,---,0.00,VWS V14.01,2013-09-29 07:47:00,
2013-09-29 02:52:00,65.4,59.4,29.89,South,175,0.0,5.0,81,0.00,,---,0.00,VWS V14.01,2013-09-29 07:52:00,
2013-09-29 02:57:00,65.5,59.5,29.89,SSE,167,0.0,5.0,81,0.00,,---,0.00,VWS V14.01,2013-09-29 07:57:00,
2013-09-29 03:02:00,65.6,59.6,29.89,South,172,0.0,5.0,81,0.00,,---,0.00,VWS V14.01,2013-09-29 08:02:00,
2013-09-29 03:07:00,65.7,59.4,29.89,South,169,1.0,2.0,80,0.00,,---,0.00,VWS V14.01,2013-09-29 08:07:00,
2013-09-29 03:12:00,65.8,59.5,29.89,SSE,168,1.0,5.0,80,0.00,,---,0.00,VWS V14.01,2013-09-29 08:12:00,
2013-09-29 03:17:00,65.8,59.5,29.88,SSE,159,0.0,5.0,80,0.00,,---,0.00,VWS V14.01,2013-09-29 08:17:00,
2013-09-29 03:22:00,65.9,59.6,29.88,SSE,153,1.0,5.0,80,0.00,,---,0.00,VWS V14.01,2013-09-29 08:22:00,
2013-09-29 03:27:00,65.9,59.6,29.88,South,174,0.0,5.0,80,0.00,,---,0.00,VWS V14.01,2013-09-29 08:27:00,
2013-09-29 03:32:00,65.9,59.6,29.88,SSE,153,0.0,8.0,80,0.00,,---,0.00,VWS V14.01,2013-09-29 08:32:00,
2013-09-29 03:37:00,65.9,59.6,29.88,SSE,156,0.0,5.0,80,0.00,,---,0.00,VWS V14.01,2013-09-29 08:37:00,
2013-09-29 03:42:00,66.0,59.3,29.88,SSE,168,0.0,5.0,79,0.00,,---,0.00,VWS V14.01,2013-09-29 08:42:00,
2013-09-29 03:47:00,66.1,59.4,29.88,SSE,164,0.0,5.0,79,0.00,,---,0.00,VWS V14.01,2013-09-29 08:47:00,
2013-09-29 03:52:00,66.2,59.5,29.88,SSE,159,0.0,5.0,79,0.00,,---,0.00,VWS V14.01,2013-09-29 08:52:00,
2013-09-29 03:57:00,66.3,59.6,29.88,South,173,1.0,5.0,79,0.00,,---,0.00,VWS V14.01,2013-09-29 08:57:00,
2013-09-29 04:02:00,66.4,59.7,29.88,South,176,0.0,5.0,79,0.00,,---,0.00,VWS V14.01,2013-09-29 09:02:00,
2013-09-29 04:07:00,66.4,59.3,29.88,SSE,157,0.0,6.0,78,0.00,,---,0.00,VWS V14.01,2013-09-29 09:07:00,
2013-09-29 04:12:00,66.5,59.4,29.88,SSW,195,0.0,8.0,78,0.00,,---,0.00,VWS V14.01,2013-09-29 09:12:00,
2013-09-29 04:17:00,66.5,59.4,29.87,South,190,0.0,8.0,78,0.00,,---,0.00,VWS V14.01,2013-09-29 09:17:00,
2013-09-29 04:22:00,66.6,59.5,29.87,SSE,159,0.0,8.0,78,0.00,,---,0.00,VWS V14.01,2013-09-29 09:22:00,
2013-09-29 04:27:00,66.6,59.5,29.87,South,187,6.0,8.0,78,0.00,,---,0.00,VWS V14.01,2013-09-29 09:27:00,
2013-09-29 04:32:00,66.6,59.5,29.87,SSE,155,0.0,8.0,78,0.00,,---,0.00,VWS V14.01,2013-09-29 09:32:00,
2013-09-29 04:37:00,66.5,59.4,29.87,SSE,148,0.0,0.0,78,0.00,,---,0.00,VWS V14.01,2013-09-29 09:37:00,
2013-09-29 04:42:00,66.5,59.8,29.87,South,185,0.0,4.0,79,0.00,,---,0.00,VWS V14.01,2013-09-29 09:42:00,
2013-09-29 04:47:00,66.4,59.7,29.88,SW,215,0.0,4.0,79,0.00,,---,0.00,VWS V14.01,2013-09-29 09:47:00,
2013-09-29 04:52:00,66.4,59.7,29.88,SSE,153,0.0,4.0,79,0.00,,---,0.00,VWS V14.01,2013-09-29 09:52:00,
2013-09-29 04:57:00,66.4,59.7,29.88,SSE,153,0.0,4.0,79,0.00,,---,0.00,VWS V14.01,2013-09-29 09:57:00,
2013-09-29 05:02:00,66.4,59.7,29.88,SSE,153,0.0,4.0,79,0.00,,---,0.00,VWS V14.01,2013-09-29 10:02:00,
2013-09-29 05:07:00,66.5,59.4,29.88,SSE,167,0.0,3.0,78,0.00,,---,0.00,VWS V14.01,2013-09-29 10:07:00,
2013-09-29 05:12:00,66.5,59.4,29.88,South,171,0.0,5.0,78,0.00,,---,0.00,VWS V14.01,2013-09-29 10:12:00,
2013-09-29 05:17:00,66.6,59.5,29.88,South,169,0.0,5.0,78,0.00,,---,0.00,VWS V14.01,2013-09-29 10:17:00,
2013-09-29 05:22:00,66.6,59.5,29.88,South,169,0.0,5.0,78,0.00,,---,0.00,VWS V14.01,2013-09-29 10:22:00,
2013-09-29 05:27:00,66.7,59.6,29.88,South,180,0.0,5.0,78,0.00,,---,0.00,VWS V14.01,2013-09-29 10:27:00,
2013-09-29 05:32:00,66.7,59.6,29.89,South,175,0.0,0.0,78,0.00,,---,0.00,VWS V14.01,2013-09-29 10:32:00,
2013-09-29 05:37:00,66.7,59.6,29.89,South,175,0.0,0.0,78,0.00,,---,0.00,VWS V14.01,2013-09-29 10:37:00,
2013-09-29 05:42:00,66.7,59.6,29.89,South,178,0.0,2.0,78,0.00,,---,0.00,VWS V14.01,2013-09-29 10:42:00,
2013-09-29 05:47:00,66.6,59.5,29.90,South,178,0.0,2.0,78,0.00,,---,0.00,VWS V14.01,2013-09-29 10:47:00,
2013-09-29 05:52:00,66.6,59.5,29.90,South,178,0.0,2.0,78,0.00,,---,0.00,VWS V14.01,2013-09-29 10:52:00,
2013-09-29 05:57:00,66.5,59.8,29.90,South,178,0.0,2.0,79,0.00,,---,0.00,VWS V14.01,2013-09-29 10:57:00,
2013-09-29 06:02:00,66.3,59.6,29.90,South,178,0.0,0.0,79,0.00,,---,0.00,VWS V14.01,2013-09-29 11:02:00,
2013-09-29 06:07:00,66.2,59.5,29.90,South,178,0.0,0.0,79,0.00,,---,0.00,VWS V14.01,2013-09-29 11:07:00,
2013-09-29 06:12:00,66.1,59.8,29.90,South,178,0.0,0.0,80,0.00,,---,0.00,VWS V14.01,2013-09-29 11:12:00,
2013-09-29 06:17:00,66.0,59.7,29.90,South,178,0.0,0.0,80,0.00,,---,0.00,VWS V14.01,2013-09-29 11:17:00,
2013-09-29 06:22:00,65.9,59.9,29.90,South,178,0.0,0.0,81,0.00,,---,0.00,VWS V14.01,2013-09-29 11:22:00,
2013-09-29 06:27:00,65.7,59.7,29.90,South,178,0.0,0.0,81,0.00,,---,0.00,VWS V14.01,2013-09-29 11:27:00,
2013-09-29 06:32:00,65.6,59.6,29.90,SE,144,0.0,1.0,81,0.00,,---,0.00,VWS V14.01,2013-09-29 11:32:00,
2013-09-29 06:37:00,65.4,59.8,29.90,SSE,158,0.0,3.0,82,0.00,,---,0.00,VWS V14.01,2013-09-29 11:37:00,
2013-09-29 06:42:00,65.3,59.7,29.90,SSE,159,0.0,3.0,82,0.00,,---,0.00,VWS V14.01,2013-09-29 11:42:00,
2013-09-29 06:47:00,65.3,59.7,29.91,SSE,159,0.0,3.0,82,0.00,,---,0.00,VWS V14.01,2013-09-29 11:47:00,
2013-09-29 06:52:00,65.2,59.6,29.91,SSE,159,0.0,3.0,82,0.00,,---,0.00,VWS V14.01,2013-09-29 11:52:00,
2013-09-29 06:57:00,65.2,59.6,29.91,SSE,160,0.0,3.0,82,0.00,,---,0.00,VWS V14.01,2013-09-29 11:57:00,
2013-09-29 07:02:00,65.2,59.6,29.91,SSE,159,0.0,3.0,82,0.00,,---,0.00,VWS V14.01,2013-09-29 12:02:00,
2013-09-29 07:07:00,65.2,59.6,29.91,SSE,159,0.0,0.0,82,0.00,,---,0.00,VWS V14.01,2013-09-29 12:07:00,
2013-09-29 07:12:00,65.2,59.9,29.91,SSE,159,0.0,0.0,83,0.00,,---,0.00,VWS V14.01,2013-09-29 12:12:00,
2013-09-29 07:17:00,65.1,60.2,29.92,SSE,159,0.0,0.0,84,0.00,,---,0.00,VWS V14.01,2013-09-29 12:17:00,
2013-09-29 07:22:00,65.0,60.0,29.92,SSE,159,0.0,0.0,84,0.00,,---,0.00,VWS V14.01,2013-09-29 12:22:00,
2013-09-29 07:27:00,64.9,60.0,29.92,SSE,160,0.0,0.0,84,0.00,,---,0.00,VWS V14.01,2013-09-29 12:27:00,
2013-09-29 07:32:00,64.8,60.2,29.92,SSE,160,0.0,0.0,85,0.00,,---,0.00,VWS V14.01,2013-09-29 12:32:00,
2013-09-29 07:37:00,64.7,60.4,29.92,SSE,159,0.0,0.0,86,0.00,,---,0.00,VWS V14.01,2013-09-29 12:37:00,
2013-09-29 07:42:00,64.6,60.3,29.92,SSE,159,0.0,0.0,86,0.00,,---,0.00,VWS V14.01,2013-09-29 12:42:00,
2013-09-29 07:47:00,64.5,60.2,29.92,SSE,160,0.0,0.0,86,0.00,,---,0.00,VWS V14.01,2013-09-29 12:47:00,
2013-09-29 07:52:00,64.4,60.5,29.92,SSE,160,0.0,0.0,87,0.00,,---,0.00,VWS V14.01,2013-09-29 12:52:00,
2013-09-29 07:57:00,64.4,60.5,29.92,SSE,159,0.0,0.0,87,0.00,,---,0.00,VWS V14.01,2013-09-29 12:57:00,
2013-09-29 08:02:00,64.4,60.8,29.92,SSE,159,0.0,0.0,88,0.01,,---,0.01,VWS V14.01,2013-09-29 13:02:00,
2013-09-29 08:07:00,64.2,60.6,29.92,SSE,161,0.0,1.0,88,0.02,,---,0.02,VWS V14.01,2013-09-29 13:07:00,
2013-09-29 08:12:00,63.9,60.3,29.92,SSE,161,0.0,1.0,88,0.04,,---,0.04,VWS V14.01,2013-09-29 13:12:00,
2013-09-29 08:17:00,63.8,60.5,29.92,SSE,161,0.0,1.0,89,0.06,,---,0.06,VWS V14.01,2013-09-29 13:17:00,
2013-09-29 08:22:00,63.5,60.2,29.92,SSE,161,0.0,1.0,89,0.08,,---,0.08,VWS V14.01,2013-09-29 13:22:00,
2013-09-29 08:27:00,63.2,60.2,29.92,SSE,161,0.0,1.0,90,0.10,,---,0.10,VWS V14.01,2013-09-29 13:27:00,
2013-09-29 08:32:00,63.1,60.1,29.92,SSE,160,0.0,1.0,90,0.11,,---,0.11,VWS V14.01,2013-09-29 13:32:00,
2013-09-29 08:37:00,63.0,60.3,29.92,SSE,161,0.0,0.0,91,0.12,,---,0.12,VWS V14.01,2013-09-29 13:37:00,
2013-09-29 08:42:00,62.9,60.2,29.92,SSE,161,0.0,0.0,91,0.14,,---,0.14,VWS V14.01,2013-09-29 13:42:00,
2013-09-29 08:47:00,62.9,60.5,29.94,SSE,161,0.0,0.0,92,0.15,,---,0.15,VWS V14.01,2013-09-29 13:47:00,
2013-09-29 08:52:00,62.9,60.5,29.94,SSE,161,0.0,0.0,92,0.16,,---,0.16,VWS V14.01,2013-09-29 13:52:00,
2013-09-29 08:57:00,62.8,60.5,29.94,SSE,161,0.0,0.0,92,0.17,,---,0.17,VWS V14.01,2013-09-29 13:57:00,
2013-09-29 09:02:00,62.7,60.3,29.94,SSE,161,0.0,0.0,92,0.19,,---,0.19,VWS V14.01,2013-09-29 14:02:00,
2013-09-29 09:07:00,62.7,60.3,29.94,SSE,161,0.0,0.0,92,0.20,,---,0.21,VWS V14.01,2013-09-29 14:07:00,
2013-09-29 09:12:00,62.7,60.3,29.94,SSE,161,0.0,0.0,92,0.21,,---,0.22,VWS V14.01,2013-09-29 14:12:00,
2013-09-29 09:17:00,62.6,60.5,29.94,SSE,161,0.0,0.0,93,0.24,,---,0.25,VWS V14.01,2013-09-29 14:17:00,
2013-09-29 09:22:00,62.6,60.5,29.94,SSE,161,0.0,0.0,93,0.26,,---,0.27,VWS V14.01,2013-09-29 14:22:00,
2013-09-29 09:27:00,62.5,60.5,29.94,SSE,160,0.0,0.0,93,0.28,,---,0.29,VWS V14.01,2013-09-29 14:27:00,
2013-09-29 09:32:00,62.5,60.5,29.94,SSE,161,0.0,0.0,93,0.32,,---,0.33,VWS V14.01,2013-09-29 14:32:00,
2013-09-29 09:37:00,62.6,60.5,29.94,SSE,161,0.0,0.0,93,0.24,,---,0.35,VWS V14.01,2013-09-29 14:37:00,
2013-09-29 09:42:00,62.6,60.5,29.94,SSE,161,0.0,1.0,93,0.27,,---,0.38,VWS V14.01,2013-09-29 14:42:00,
2013-09-29 09:47:00,62.5,60.5,29.94,SSE,161,0.0,1.0,93,0.32,,---,0.43,VWS V14.01,2013-09-29 14:47:00,
2013-09-29 09:52:00,62.4,60.3,29.94,SSE,161,0.0,1.0,93,0.37,,---,0.48,VWS V14.01,2013-09-29 14:52:00,
2013-09-29 09:57:00,62.2,60.2,29.94,SSE,161,0.0,2.0,93,0.40,,---,0.51,VWS V14.01,2013-09-29 14:57:00,
2013-09-29 10:02:00,62.1,60.4,29.94,SSE,160,0.0,2.0,94,0.44,,---,0.55,VWS V14.01,2013-09-29 15:02:00,
2013-09-29 10:07:00,62.1,60.4,29.94,SSE,161,0.0,1.0,94,0.39,,---,0.58,VWS V14.01,2013-09-29 15:07:00,
2013-09-29 10:12:00,62.1,60.4,29.94,SSE,161,0.0,1.0,94,0.40,,---,0.59,VWS V14.01,2013-09-29 15:12:00,
2013-09-29 10:17:00,62.1,60.4,29.94,SSE,161,0.0,1.0,94,0.42,,---,0.61,VWS V14.01,2013-09-29 15:17:00,
2013-09-29 10:22:00,62.1,60.4,29.94,South,182,0.0,1.0,94,0.43,,---,0.62,VWS V14.01,2013-09-29 15:22:00,
2013-09-29 10:27:00,62.1,60.4,29.94,South,182,0.0,1.0,94,0.44,,---,0.63,VWS V14.01,2013-09-29 15:27:00,
2013-09-29 10:32:00,62.1,60.4,29.94,South,181,0.0,1.0,94,0.45,,---,0.64,VWS V14.01,2013-09-29 15:32:00,
2013-09-29 10:37:00,62.1,60.4,29.94,South,181,0.0,0.0,94,0.34,,---,0.67,VWS V14.01,2013-09-29 15:37:00,
2013-09-29 10:42:00,62.0,60.3,29.94,South,178,0.0,5.0,94,0.38,,---,0.71,VWS V14.01,2013-09-29 15:42:00,
2013-09-29 10:47:00,61.9,60.2,29.94,SSE,151,0.0,5.0,94,0.41,,---,0.74,VWS V14.01,2013-09-29 15:47:00,
2013-09-29 10:52:00,61.9,60.2,29.94,SSE,151,0.0,5.0,94,0.44,,---,0.77,VWS V14.01,2013-09-29 15:52:00,
2013-09-29 10:57:00,61.8,60.1,29.94,South,178,0.0,5.0,94,0.47,,---,0.80,VWS V14.01,2013-09-29 15:57:00,
2013-09-29 11:02:00,61.9,60.2,29.94,South,171,0.0,5.0,94,0.49,,---,0.82,VWS V14.01,2013-09-29 16:02:00,
2013-09-29 11:07:00,62.0,60.6,29.94,South,171,0.0,1.0,95,0.29,,---,0.84,VWS V14.01,2013-09-29 16:07:00,
2013-09-29 11:12:00,62.0,60.6,29.94,South,171,0.0,1.0,95,0.30,,---,0.85,VWS V14.01,2013-09-29 16:12:00,
2013-09-29 11:17:00,62.0,60.6,29.94,South,171,1.0,2.0,95,0.32,,---,0.87,VWS V14.01,2013-09-29 16:17:00,
2013-09-29 11:22:00,62.0,60.6,29.94,SSE,164,2.0,3.0,95,0.34,,---,0.89,VWS V14.01,2013-09-29 16:22:00,
2013-09-29 11:27:00,62.0,60.6,29.94,SSE,167,0.0,4.0,95,0.36,,---,0.91,VWS V14.01,2013-09-29 16:27:00,
2013-09-29 11:32:00,62.1,60.7,29.94,SSE,166,0.0,4.0,95,0.38,,---,0.93,VWS V14.01,2013-09-29 16:32:00,
2013-09-29 11:37:00,62.2,60.8,29.94,SSE,166,0.0,1.0,95,0.30,,---,0.94,VWS V14.01,2013-09-29 16:37:00,
2013-09-29 11:42:00,62.2,60.8,29.94,SSE,164,2.0,4.0,95,0.31,,---,0.95,VWS V14.01,2013-09-29 16:42:00,
2013-09-29 11:47:00,62.2,60.8,29.93,South,181,0.0,5.0,95,0.31,,---,0.95,VWS V14.01,2013-09-29 16:47:00,
2013-09-29 11:52:00,62.1,60.7,29.93,South,169,0.0,5.0,95,0.32,,---,0.96,VWS V14.01,2013-09-29 16:52:00,
2013-09-29 11:57:00,62.1,60.7,29.93,SSE,155,2.0,5.0,95,0.32,,---,0.96,VWS V14.01,2013-09-29 16:57:00,
2013-09-29 12:02:00,62.1,60.7,29.93,South,171,3.0,5.0,95,0.32,,---,0.96,VWS V14.01,2013-09-29 17:02:00,
2013-09-29 12:07:00,62.1,60.7,29.93,SSE,150,3.0,7.0,95,0.14,,---,0.96,VWS V14.01,2013-09-29 17:07:00,
2013-09-29 12:12:00,62.1,60.7,29.93,South,190,3.0,7.0,95,0.15,,---,0.97,VWS V14.01,2013-09-29 17:12:00,
2013-09-29 12:17:00,62.1,60.7,29.92,South,178,0.0,7.0,95,0.15,,---,0.97,VWS V14.01,2013-09-29 17:17:00,
2013-09-29 12:22:00,62.2,60.8,29.92,SSE,162,0.0,7.0,95,0.15,,---,0.97,VWS V14.01,2013-09-29 17:22:00,
2013-09-29 12:27:00,62.2,60.8,29.92,SSE,149,0.0,7.0,95,0.16,,---,0.98,VWS V14.01,2013-09-29 17:27:00,
2013-09-29 12:32:00,62.3,60.8,29.92,South,180,0.0,0.0,95,0.05,,---,0.98,VWS V14.01,2013-09-29 17:32:00,
2013-09-29 12:37:00,62.2,60.8,29.92,SE,132,0.0,5.0,95,0.06,,---,0.99,VWS V14.01,2013-09-29 17:37:00,
2013-09-29 12:42:00,62.2,60.8,29.92,SSE,158,0.0,5.0,95,0.07,,---,1.00,VWS V14.01,2013-09-29 17:42:00,
2013-09-29 12:47:00,62.3,60.8,29.91,South,173,0.0,6.0,95,0.08,,---,1.01,VWS V14.01,2013-09-29 17:47:00,
2013-09-29 12:52:00,62.3,60.8,29.91,South,172,5.0,6.0,95,0.08,,---,1.01,VWS V14.01,2013-09-29 17:52:00,
2013-09-29 12:57:00,62.2,60.8,29.91,SE,138,0.0,9.0,95,0.09,,---,1.02,VWS V14.01,2013-09-29 17:57:00,
2013-09-29 13:02:00,62.4,61.0,29.91,SSE,165,0.0,0.0,95,0.06,,---,1.02,VWS V14.01,2013-09-29 18:02:00,
2013-09-29 13:07:00,62.4,61.0,29.91,South,185,4.0,6.0,95,0.06,,---,1.02,VWS V14.01,2013-09-29 18:07:00,
2013-09-29 13:12:00,62.4,61.0,29.91,SSE,152,0.0,6.0,95,0.06,,---,1.02,VWS V14.01,2013-09-29 18:12:00,
2013-09-29 13:17:00,62.4,61.0,29.90,SE,146,0.0,6.0,95,0.06,,---,1.02,VWS V14.01,2013-09-29 18:17:00,
2013-09-29 13:22:00,62.4,61.0,29.90,South,173,0.0,8.0,95,0.06,,---,1.02,VWS V14.01,2013-09-29 18:22:00,
2013-09-29 13:27:00,62.5,61.0,29.90,SSW,196,3.0,8.0,95,0.06,,---,1.02,VWS V14.01,2013-09-29 18:27:00,
2013-09-29 13:32:00,62.5,61.0,29.89,SE,146,2.0,3.0,95,0.04,,---,1.02,VWS V14.01,2013-09-29 18:32:00,
2013-09-29 13:37:00,62.6,61.2,29.89,South,183,0.0,3.0,95,0.04,,---,1.02,VWS V14.01,2013-09-29 18:37:00,
2013-09-29 13:42:00,62.6,61.2,29.89,SSE,167,0.0,6.0,95,0.04,,---,1.02,VWS V14.01,2013-09-29 18:42:00,
2013-09-29 13:47:00,62.8,61.3,29.89,SSE,167,0.0,6.0,95,0.04,,---,1.02,VWS V14.01,2013-09-29 18:47:00,
2013-09-29 13:52:00,62.8,61.3,29.89,SSE,158,1.0,6.0,95,0.04,,---,1.02,VWS V14.01,2013-09-29 18:52:00,
2013-09-29 13:57:00,62.7,61.2,29.89,SSE,163,4.0,6.0,95,0.04,,---,1.02,VWS V14.01,2013-09-29 18:57:00,
2013-09-29 14:02:00,62.7,61.2,29.88,South,173,0.0,0.0,95,0.00,,---,1.02,VWS V14.01,2013-09-29 19:02:00,
2013-09-29 14:07:00,62.8,61.3,29.88,South,176,0.0,4.0,95,0.00,,---,1.02,VWS V14.01,2013-09-29 19:07:00,
2013-09-29 14:12:00,62.7,61.2,29.88,SSE,158,2.0,5.0,95,0.00,,---,1.02,VWS V14.01,2013-09-29 19:12:00,
2013-09-29 14:17:00,62.7,61.2,29.88,SSE,159,1.0,6.0,95,0.00,,---,1.02,VWS V14.01,2013-09-29 19:17:00,
2013-09-29 14:22:00,62.7,61.2,29.88,SSW,193,0.0,6.0,95,0.00,,---,1.02,VWS V14.01,2013-09-29 19:22:00,
2013-09-29 14:27:00,62.8,61.3,29.88,South,175,0.0,6.0,95,0.00,,---,1.02,VWS V14.01,2013-09-29 19:27:00,
2013-09-29 14:32:00,62.9,61.5,29.87,South,169,2.0,3.0,95,0.00,,---,1.02,VWS V14.01,2013-09-29 19:32:00,
2013-09-29 14:37:00,62.9,61.5,29.87,SSE,159,3.0,5.0,95,0.00,,---,1.02,VWS V14.01,2013-09-29 19:37:00,
2013-09-29 14:42:00,62.9,61.5,29.87,SSE,163,0.0,5.0,95,0.00,,---,1.02,VWS V14.01,2013-09-29 19:42:00,
2013-09-29 14:47:00,63.1,61.7,29.87,SSE,148,2.0,5.0,95,0.00,,---,1.02,VWS V14.01,2013-09-29 19:47:00,
2013-09-29 14:48:00,63.1,61.7,29.87,SSE,163,2.0,5.0,95,0.00,,---,1.02,VWS V14.01,2013-09-29 19:48:00,
2013-09-29 14:53:00,63.0,61.5,29.87,SE,132,0.0,5.0,95,0.00,,---,1.02,VWS V14.01,2013-09-29 19:53:00,
2013-09-29 14:58:00,62.9,61.5,29.87,SSE,158,0.0,5.0,95,0.00,,---,1.02,VWS V14.01,2013-09-29 19:58:00,
2013-09-29 15:03:00,62.9,61.5,29.87,SE,138,3.0,5.0,95,0.00,,---,1.02,VWS V14.01,2013-09-29 20:03:00,
2013-09-29 15:08:00,62.8,61.3,29.87,SE,139,0.0,5.0,95,0.00,,---,1.02,VWS V14.01,2013-09-29 20:08:00,
2013-09-29 15:13:00,62.8,61.3,29.87,SSE,165,1.0,5.0,95,0.00,,---,1.02,VWS V14.01,2013-09-29 20:13:00,
2013-09-29 15:18:00,62.8,61.3,29.87,SSE,154,2.0,5.0,95,0.00,,---,1.02,VWS V14.01,2013-09-29 20:18:00,
2013-09-29 15:23:00,62.8,61.3,29.87,South,184,6.0,6.0,95,0.00,,---,1.02,VWS V14.01,2013-09-29 20:23:00,
2013-09-29 15:28:00,62.8,61.3,29.87,South,177,2.0,6.0,95,0.00,,---,1.02,VWS V14.01,2013-09-29 20:28:00,
2013-09-29 15:33:00,62.8,61.3,29.87,South,173,0.0,1.0,95,0.00,,---,1.02,VWS V14.01,2013-09-29 20:33:00,
2013-09-29 15:38:00,62.9,61.5,29.87,South,175,0.0,4.0,95,0.00,,---,1.02,VWS V14.01,2013-09-29 20:38:00,
2013-09-29 15:43:00,62.8,61.3,29.87,SSE,152,9.0,9.0,95,0.01,,---,1.03,VWS V14.01,2013-09-29 20:43:00,
2013-09-29 15:48:00,62.7,61.2,29.87,SSE,150,4.0,9.0,95,0.01,,---,1.03,VWS V14.01,2013-09-29 20:48:00,
2013-09-29 15:53:00,62.8,61.3,29.87,South,175,0.0,9.0,95,0.01,,---,1.03,VWS V14.01,2013-09-29 20:53:00,
2013-09-29 15:58:00,62.9,61.5,29.87,South,174,0.0,9.0,95,0.01,,---,1.03,VWS V14.01,2013-09-29 20:58:00,
2013-09-29 16:03:00,62.8,61.3,29.87,South,175,0.0,2.0,95,0.01,,---,1.03,VWS V14.01,2013-09-29 21:03:00,
2013-09-29 16:08:00,62.7,61.2,29.87,South,182,0.0,5.0,95,0.01,,---,1.03,VWS V14.01,2013-09-29 21:08:00,
2013-09-29 16:13:00,62.7,61.2,29.87,South,172,0.0,5.0,95,0.01,,---,1.03,VWS V14.01,2013-09-29 21:13:00,
2013-09-29 16:18:00,62.7,61.2,29.87,East,82,0.0,5.0,95,0.01,,---,1.03,VWS V14.01,2013-09-29 21:18:00,
2013-09-29 16:23:00,62.7,61.2,29.87,SSE,166,2.0,5.0,95,0.01,,---,1.03,VWS V14.01,2013-09-29 21:23:00,
2013-09-29 16:28:00,62.7,61.2,29.87,SSE,153,0.0,5.0,95,0.01,,---,1.03,VWS V14.01,2013-09-29 21:28:00,
2013-09-29 16:33:00,62.7,61.2,29.87,South,179,0.0,0.0,95,0.01,,---,1.03,VWS V14.01,2013-09-29 21:33:00,
2013-09-29 16:38:00,62.8,61.3,29.87,South,182,0.0,3.0,95,0.01,,---,1.03,VWS V14.01,2013-09-29 21:38:00,
2013-09-29 16:43:00,62.8,61.3,29.87,South,169,1.0,4.0,95,0.01,,---,1.03,VWS V14.01,2013-09-29 21:43:00,
2013-09-29 16:48:00,62.7,61.2,29.87,South,171,1.0,5.0,95,0.01,,---,1.03,VWS V14.01,2013-09-29 21:48:00,
2013-09-29 16:53:00,62.8,61.3,29.87,SSE,167,0.0,5.0,95,0.01,,---,1.03,VWS V14.01,2013-09-29 21:53:00,
2013-09-29 16:58:00,62.8,61.3,29.87,SSE,161,3.0,5.0,95,0.01,,---,1.03,VWS V14.01,2013-09-29 21:58:00,
2013-09-29 17:03:00,62.8,61.3,29.87,SSW,195,0.0,5.0,95,0.00,,---,1.03,VWS V14.01,2013-09-29 22:03:00,
2013-09-29 17:08:00,63.0,61.8,29.87,South,176,0.0,5.0,96,0.00,,---,1.03,VWS V14.01,2013-09-29 22:08:00,
2013-09-29 17:13:00,63.0,61.8,29.87,SSE,160,3.0,5.0,96,0.00,,---,1.03,VWS V14.01,2013-09-29 22:13:00,
2013-09-29 17:18:00,63.0,61.8,29.87,SSE,151,1.0,6.0,96,0.00,,---,1.03,VWS V14.01,2013-09-29 22:18:00,
2013-09-29 17:23:00,62.9,61.5,29.87,SSE,164,1.0,6.0,95,0.00,,---,1.03,VWS V14.01,2013-09-29 22:23:00,
2013-09-29 17:28:00,62.9,61.5,29.87,South,173,1.0,6.0,95,0.00,,---,1.03,VWS V14.01,2013-09-29 22:28:00,
2013-09-29 17:33:00,62.9,61.5,29.87,South,171,0.0,0.0,95,0.00,,---,1.03,VWS V14.01,2013-09-29 22:33:00,
2013-09-29 17:38:00,62.9,61.5,29.87,SSE,166,1.0,4.0,95,0.00,,---,1.03,VWS V14.01,2013-09-29 22:38:00,
2013-09-29 17:43:00,62.9,61.5,29.87,South,172,0.0,4.0,95,0.00,,---,1.03,VWS V14.01,2013-09-29 22:43:00,
2013-09-29 17:48:00,62.8,61.3,29.86,SSE,165,0.0,5.0,95,0.00,,---,1.03,VWS V14.01,2013-09-29 22:48:00,
2013-09-29 17:53:00,62.8,61.3,29.86,SSE,158,2.0,5.0,95,0.00,,---,1.03,VWS V14.01,2013-09-29 22:53:00,
2013-09-29 17:58:00,62.8,61.3,29.86,South,170,0.0,5.0,95,0.00,,---,1.03,VWS V14.01,2013-09-29 22:58:00,
2013-09-29 18:03:00,62.8,61.3,29.86,South,185,0.0,5.0,95,0.00,,---,1.03,VWS V14.01,2013-09-29 23:03:00,
2013-09-29 18:08:00,62.8,61.3,29.86,SSE,167,2.0,5.0,95,0.00,,---,1.03,VWS V14.01,2013-09-29 23:08:00,
2013-09-29 18:13:00,62.8,61.3,29.86,SSE,156,0.0,5.0,95,0.00,,---,1.03,VWS V14.01,2013-09-29 23:13:00,
2013-09-29 18:18:00,62.8,61.7,29.86,SSE,151,0.0,5.0,96,0.00,,---,1.03,VWS V14.01,2013-09-29 23:18:00,
2013-09-29 18:23:00,62.8,61.7,29.86,SSE,158,0.0,5.0,96,0.00,,---,1.03,VWS V14.01,2013-09-29 23:23:00,
2013-09-29 18:28:00,62.8,61.7,29.86,SSE,157,0.0,5.0,96,0.00,,---,1.03,VWS V14.01,2013-09-29 23:28:00,
2013-09-29 18:33:00,62.8,61.7,29.87,SSE,168,5.0,5.0,96,0.00,,---,1.03,VWS V14.01,2013-09-29 23:33:00,
2013-09-29 18:38:00,62.8,61.7,29.87,South,184,0.0,5.0,96,0.00,,---,1.03,VWS V14.01,2013-09-29 23:38:00,
2013-09-29 18:43:00,62.8,61.7,29.87,South,178,1.0,5.0,96,0.00,,---,1.03,VWS V14.01,2013-09-29 23:43:00,
2013-09-29 18:48:00,62.8,61.7,29.86,SSE,161,0.0,5.0,96,0.00,,---,1.03,VWS V14.01,2013-09-29 23:48:00,
2013-09-29 18:53:00,62.8,61.7,29.86,SSE,161,0.0,5.0,96,0.00,,---,1.03,VWS V14.01,2013-09-29 23:53:00,
2013-09-29 18:58:00,62.8,61.7,29.86,SSE,161,0.0,5.0,96,0.00,,---,1.03,VWS V14.01,2013-09-29 23:58:00,
2013-09-29 19:03:00,62.8,61.7,29.86,SSE,161,0.0,0.0,96,0.00,,---,1.03,VWS V14.01,2013-09-30 00:03:00,
2013-09-29 19:08:00,62.9,61.8,29.86,SSE,164,0.0,1.0,96,0.00,,---,1.03,VWS V14.01,2013-09-30 00:08:00,
2013-09-29 19:13:00,62.9,61.8,29.86,SSE,164,0.0,1.0,96,0.00,,---,1.03,VWS V14.01,2013-09-30 00:13:00,
2013-09-29 19:18:00,63.0,61.8,29.87,SSE,164,0.0,1.0,96,0.00,,---,1.03,VWS V14.01,2013-09-30 00:18:00,
2013-09-29 19:23:00,63.0,61.8,29.87,SSE,164,0.0,1.0,96,0.00,,---,1.03,VWS V14.01,2013-09-30 00:23:00,
2013-09-29 19:28:00,63.0,61.8,29.87,SSE,164,0.0,1.0,96,0.00,,---,1.03,VWS V14.01,2013-09-30 00:28:00,
2013-09-29 19:33:00,63.1,61.9,29.87,SSE,164,0.0,0.0,96,0.00,,---,1.03,VWS V14.01,2013-09-30 00:33:00,
2013-09-29 19:38:00,63.1,61.9,29.87,SSE,164,0.0,0.0,96,0.00,,---,1.03,VWS V14.01,2013-09-30 00:38:00,
2013-09-29 19:43:00,63.0,61.8,29.87,SSE,164,0.0,0.0,96,0.00,,---,1.03,VWS V14.01,2013-09-30 00:43:00,
2013-09-29 19:48:00,63.0,61.8,29.87,SSE,164,0.0,0.0,96,0.00,,---,1.03,VWS V14.01,2013-09-30 00:48:00,
2013-09-29 19:53:00,63.0,61.8,29.87,SSE,164,0.0,1.0,96,0.00,,---,1.03,VWS V14.01,2013-09-30 00:53:00,
2013-09-29 19:58:00,63.0,61.8,29.87,SSE,164,0.0,1.0,96,0.00,,---,1.03,VWS V14.01,2013-09-30 00:58:00,
2013-09-29 20:03:00,63.1,61.9,29.87,SSE,164,0.0,0.0,96,0.00,,---,1.03,VWS V14.01,2013-09-30 01:03:00,
2013-09-29 20:08:00,63.1,61.9,29.87,SSE,160,0.0,4.0,96,0.00,,---,1.03,VWS V14.01,2013-09-30 01:08:00,
2013-09-29 20:13:00,63.1,61.9,29.87,South,178,3.0,4.0,96,0.00,,---,1.03,VWS V14.01,2013-09-30 01:13:00,
2013-09-29 20:18:00,63.1,61.9,29.87,SSE,165,0.0,4.0,96,0.00,,---,1.03,VWS V14.01,2013-09-30 01:18:00,
2013-09-29 20:23:00,63.1,61.9,29.87,South,171,0.0,4.0,96,0.00,,---,1.03,VWS V14.01,2013-09-30 01:23:00,
2013-09-29 20:28:00,63.1,61.9,29.87,South,171,0.0,4.0,96,0.00,,---,1.03,VWS V14.01,2013-09-30 01:28:00,
2013-09-29 20:33:00,63.1,61.9,29.87,South,171,0.0,0.0,96,0.00,,---,1.03,VWS V14.01,2013-09-30 01:33:00,
2013-09-29 20:38:00,63.1,61.9,29.87,South,169,0.0,1.0,96,0.00,,---,1.03,VWS V14.01,2013-09-30 01:38:00,
2013-09-29 20:43:00,63.1,61.9,29.87,South,169,0.0,1.0,96,0.00,,---,1.03,VWS V14.01,2013-09-30 01:43:00,
2013-09-29 20:48:00,63.1,61.9,29.87,South,169,0.0,1.0,96,0.00,,---,1.03,VWS V14.01,2013-09-30 01:48:00,
2013-09-29 20:53:00,63.1,61.9,29.87,SSE,161,0.0,4.0,96,0.00,,---,1.03,VWS V14.01,2013-09-30 01:53:00,
2013-09-29 20:58:00,63.1,61.9,29.87,SSE,161,0.0,4.0,96,0.00,,---,1.03,VWS V14.01,2013-09-30 01:58:00,
2013-09-29 21:03:00,63.1,61.9,29.87,SSE,161,0.0,0.0,96,0.00,,---,1.03,VWS V14.01,2013-09-30 02:03:00,
2013-09-29 21:08:00,63.2,62.0,29.87,SSE,161,0.0,2.0,96,0.00,,---,1.03,VWS V14.01,2013-09-30 02:08:00,
2013-09-29 21:13:00,63.1,61.9,29.87,SSE,161,0.0,2.0,96,0.00,,---,1.03,VWS V14.01,2013-09-30 02:13:00,
2013-09-29 21:18:00,63.1,61.9,29.87,SSE,161,0.0,2.0,96,0.00,,---,1.03,VWS V14.01,2013-09-30 02:18:00,
2013-09-29 21:23:00,63.2,62.0,29.87,SSE,161,0.0,2.0,96,0.00,,---,1.03,VWS V14.01,2013-09-30 02:23:00,
2013-09-29 21:28:00,63.2,62.0,29.87,SSE,161,0.0,2.0,96,0.00,,---,1.03,VWS V14.01,2013-09-30 02:28:00,
2013-09-29 21:33:00,63.2,62.0,29.87,SSE,161,0.0,0.0,96,0.00,,---,1.03,VWS V14.01,2013-09-30 02:33:00,
2013-09-29 21:38:00,63.2,62.0,29.87,SSE,161,0.0,0.0,96,0.00,,---,1.03,VWS V14.01,2013-09-30 02:38:00,
2013-09-29 21:43:00,63.2,62.0,29.87,SSE,161,0.0,0.0,96,0.00,,---,1.03,VWS V14.01,2013-09-30 02:43:00,
2013-09-29 21:48:00,63.2,62.0,29.87,SSE,161,0.0,0.0,96,0.00,,---,1.03,VWS V14.01,2013-09-30 02:48:00,
2013-09-29 21:53:00,63.2,62.0,29.87,SSE,161,0.0,1.0,96,0.00,,---,1.03,VWS V14.01,2013-09-30 02:53:00,
2013-09-29 21:58:00,63.2,62.0,29.87,SSE,161,0.0,1.0,96,0.00,,---,1.03,VWS V14.01,2013-09-30 02:58:00,
2013-09-29 22:03:00,63.2,62.0,29.87,SSE,161,0.0,0.0,96,0.00,,---,1.03,VWS V14.01,2013-09-30 03:03:00,
2013-09-29 22:08:00,63.3,62.1,29.87,SSE,161,0.0,0.0,96,0.00,,---,1.03,VWS V14.01,2013-09-30 03:08:00,
2013-09-29 22:13:00,63.3,62.1,29.87,SSE,161,0.0,0.0,96,0.00,,---,1.03,VWS V14.01,2013-09-30 03:13:00,
2013-09-29 22:18:00,63.3,62.1,29.87,SSE,161,0.0,0.0,96,0.00,,---,1.03,VWS V14.01,2013-09-30 03:18:00,
2013-09-29 22:23:00,63.3,62.1,29.87,SSE,161,0.0,0.0,96,0.00,,---,1.03,VWS V14.01,2013-09-30 03:23:00,
2013-09-29 22:28:00,63.4,62.2,29.87,SSE,161,0.0,0.0,96,0.00,,---,1.03,VWS V14.01,2013-09-30 03:28:00,
2013-09-29 22:33:00,63.3,62.1,29.86,SSE,161,0.0,0.0,96,0.00,,---,1.03,VWS V14.01,2013-09-30 03:33:00,
2013-09-29 22:38:00,63.4,62.2,29.86,SSE,161,0.0,0.0,96,0.00,,---,1.03,VWS V14.01,2013-09-30 03:38:00,
2013-09-29 22:43:00,63.4,62.2,29.86,SSE,161,0.0,0.0,96,0.00,,---,1.03,VWS V14.01,2013-09-30 03:43:00,
2013-09-29 22:48:00,63.4,62.2,29.86,SSE,161,0.0,0.0,96,0.00,,---,1.03,VWS V14.01,2013-09-30 03:48:00,
2013-09-29 22:53:00,63.4,62.2,29.86,SSE,161,0.0,0.0,96,0.00,,---,1.03,VWS V14.01,2013-09-30 03:53:00,
2013-09-29 22:58:00,63.4,62.2,29.86,SSE,161,0.0,0.0,96,0.00,,---,1.03,VWS V14.01,2013-09-30 03:58:00,
2013-09-29 23:01:00,63.4,62.2,29.86,SSE,161,0.0,0.0,96,0.00,,---,1.03,VWS V14.01,2013-09-30 04:01:00,
2013-09-29 23:06:00,63.4,62.2,29.86,SSE,161,0.0,0.0,96,0.00,,---,1.03,VWS V14.01,2013-09-30 04:06:00,
2013-09-29 23:11:00,63.5,62.3,29.86,SSE,161,0.0,0.0,96,0.00,,---,1.03,VWS V14.01,2013-09-30 04:11:00,
2013-09-29 23:16:00,63.5,62.3,29.86,SSE,161,0.0,0.0,96,0.00,,---,1.03,VWS V14.01,2013-09-30 04:16:00,
2013-09-29 23:21:00,63.4,62.2,29.86,SSE,161,0.0,0.0,96,0.00,,---,1.03,VWS V14.01,2013-09-30 04:21:00,
2013-09-29 23:26:00,63.4,62.2,29.86,SSE,161,0.0,0.0,96,0.00,,---,1.03,VWS V14.01,2013-09-30 04:26:00,
2013-09-29 23:31:00,63.4,62.2,29.86,SSE,161,0.0,0.0,96,0.00,,---,1.03,VWS V14.01,2013-09-30 04:31:00,
2013-09-29 23:36:00,63.5,62.3,29.86,SSE,161,0.0,0.0,96,0.00,,---,1.03,VWS V14.01,2013-09-30 04:36:00,
2013-09-29 23:41:00,63.5,62.3,29.86,SSE,161,0.0,1.0,96,0.00,,---,1.03,VWS V14.01,2013-09-30 04:41:00,
2013-09-29 23:46:00,63.5,62.3,29.85,SSE,161,2.0,4.0,96,0.01,,---,1.04,VWS V14.01,2013-09-30 04:46:00,
2013-09-29 23:51:00,63.6,62.4,29.85,SSE,161,0.0,5.0,96,0.01,,---,1.04,VWS V14.01,2013-09-30 04:51:00,
2013-09-29 23:56:00,63.7,62.5,29.85,SSE,161,0.0,5.0,96,0.01,,---,1.04,VWS V14.01,2013-09-30 04:56:00,